Location: Haliburton Scout Reserve
(45.0900°N, 78.3200°W)
Time: 04:31:13
(UTC-04:00)

IDEFIX/ARIANE 42P - Visible Passes

Search period start: 26 October 2014 00:00
Search period end: 04 November 2014 23:00
Orbit: 786 x 803 km, 98.3° (Epoch: 25 October)

Date Brightness Start Highest point End Pass type
(mag) Time Alt. Az. Time Alt. Az. Time Alt. Az.
26 Oct 2.8 20:07:48 45° E 20:08:06 46° ENE 20:13:07 10° N visible
26 Oct 4.6 21:48:38 24° W 21:48:38 24° W 21:52:13 10° NW visible
27 Oct 3.4 19:39:30 27° ENE 19:40:10 27° ENE 19:44:33 10° N visible
27 Oct 3.7 21:20:20 41° WNW 21:20:20 41° WNW 21:24:35 10° NNW visible
28 Oct 4.0 19:11:11 16° ENE 19:12:21 17° ENE 19:15:37 10° NNE visible
28 Oct 2.8 20:52:01 66° NW 20:52:01 66° NW 20:56:37 10° NNW visible
29 Oct 2.6 20:23:43 59° NE 20:23:43 59° NE 20:28:25 10° N visible
29 Oct 5.1 22:04:33 17° WNW 22:04:33 17° WNW 22:06:53 10° NW visible
30 Oct 3.1 19:55:24 36° ENE 19:55:24 36° ENE 20:00:00 10° N visible
30 Oct 4.4 21:36:14 28° WNW 21:36:14 28° WNW 21:39:33 10° NNW visible
31 Oct 3.7 19:27:05 22° ENE 19:27:20 22° ENE 19:31:18 10° NNE visible
31 Oct 3.6 21:07:55 43° NW 21:07:55 43° NW 21:11:44 10° NNW visible
01 Nov 4.2 18:58:45 13° ENE 18:59:35 13° ENE 19:02:01 10° NNE visible
01 Nov 3.0 20:39:36 55° N 20:39:36 55° N 20:43:40 10° NNW visible
01 Nov 5.5 22:20:26 12° WNW 22:20:26 12° WNW 22:21:08 10° WNW visible
02 Nov 3.0 19:11:16 43° NE 19:11:16 43° NE 19:15:22 10° N visible
02 Nov 4.9 20:52:06 19° WNW 20:52:06 19° WNW 20:54:21 10° NW visible
03 Nov 3.5 18:42:57 28° NE 18:42:57 28° NE 18:46:49 10° N visible
03 Nov 4.3 20:23:47 30° NW 20:23:47 30° NW 20:26:46 10° NNW visible
04 Nov 4.0 18:14:37 18° ENE 18:14:37 18° ENE 18:17:56 10° NNE visible
04 Nov 3.6 19:55:27 40° NNW 19:55:27 40° NNW 19:58:49 10° NNW visible
